Regional Weather Roundup
Issued by NWS Goodland, KS

Home | Current Version | Previous Version | Graphics & Text | Print | Product List | Glossary On
Versions: 1 2 3 4 5 6 7 8 9 10 11 12 13 14 15 16 17 18 19 20 21 22 23 24 25 26 27 28 29 30 31 32 33 34 35 36 37 38 39 40 41 42 43 44 45 46 47 48 49 50
944
ASUS43 KGLD 251208
RWRGLD

GOODLAND FORECAST AREA HOURLY WEATHER ROUNDUP
NATIONAL WEATHER SERVICE GOODLAND KS
600 AM MDT THU MAY 25 2017

...OFFICIAL OBSERVATIONS...

CITY           SKY/WX    TMP DP  RH WIND       PRES   REMARKS
GOODLAND KS    CLEAR     50  46  86 S15       29.50S
HILL CITY KS   CLEAR     49  45  86 SE5       29.55F
IMPERIAL NEB   CLOUDY    50  46  86 S8        29.47F
MCCOOK NEB     PTCLDY    47  45  93 E6        29.51R
AKRON CO       PTCLDY    55  40  56 W16       29.59R
BURLINGTON CO  CLEAR     49  46  90 SW12      29.54R
LIMON CO       CLOUDY    48  46  93 N8        29.61S
$$

...UNOFFICIAL OBSERVATIONS...

CITY           SKY/WX    TMP DP  RH WIND       PRES   REMARKS
LENORA KS        N/A     48  32  54 MISG        N/A
NORTON KS      CLEAR     48  43  81 SE9       29.53R
SHARON SPRINGS   N/A     51  47  88 S13         N/A
TRENTON NEB      N/A     48  32  54 CALM        N/A
KIT CARSON CO    N/A     49  46  88 CALM        N/A
YUMA CO        FAIR      55  41  58 W9        29.52R
$$




USA.gov is the U.S. government's official web portal to all federal, state and local government web resources and services.